Starlink 35607

operational
NORAD ID: 66163 Int'l Des: 2025-240 Owner: SPXS Country: US Constellation: starlink
LEOCIRCULAR

Starlink 35607について

説明を読み込み中...

リアルタイム位置

3D地球を読み込み中...

次回通過

高度履歴

Altitude vs Time

uPlot chart will show altitude changes over time

軌道要素

1 66163C 25240U 25298.74354167 .00630490 00000+0 10227-2 0 2985
2 66163 53.1574 338.8104 0009113 267.5180 331.3444 16.01960167 19
Epoch: Oct 25, 2025 • Age: 152 hours

現在のステータス

高度 254.6 km
速度 7.76 km/s
衛星直下点 49.46°N, 143.01°W
打ち上げ日 Oct 25, 2025
運用期間 5 days
タイプ internet

技術仕様

分類 Payload
質量 575.00 kg
乾燥質量 530.00 kg
総質量 575.00 kg
長さ 0.30 m
直径 4.10 m
スパン 29.00 m
形状 Box + pan
製造者 SPXS
バスタイプ Starlink V2MO
フェーズステータス In Orbit
所有者/国 SPXS/US

大規模コンステレーション

Loading constellations...